Hourly Data Report for August 17, 2004

TORONTO CITY
ONTARIO

43°40'00.000" N
79°24'00.000" W
112.50 m
6158355
71508
XTO

Download Data

Hourly Data (August 2004)
Hourly Data Report for August 17, 2004
TIME
LST
Temp Definition
°C
Dew Point Definition
°C
Rel Hum Definition
%
Precip. Amount Definition
mm

Wind Dir Definition
10's deg

Wind Spd Definition
km/h
Visibility Definition
km
Stn Press Definition
kPa
Hmdx Definition


Wind Chill Definition


Weather Definition


00:00 18.3 16.5 89   LegendMM LegendMM LegendMM 100.71     LegendNANA
01:00 18.4 16.7 90   LegendMM LegendMM LegendMM 100.71     LegendNANA
02:00 16.7 14.4 86   LegendMM LegendMM LegendMM 100.68     LegendNANA
03:00 15.9 12.9 82   LegendMM LegendMM LegendMM 100.67     LegendNANA
04:00 14.4 11.7 84   LegendMM LegendMM LegendMM 100.65     LegendNANA
05:00 14.6 11.0 79   LegendMM LegendMM LegendMM 100.65     LegendNANA
06:00 15.0 11.5 80   LegendMM LegendMM LegendMM 100.68     LegendNANA
07:00 16.4 11.6 73   LegendMM LegendMM LegendMM 100.69     LegendNANA
08:00 18.0 12.0 68   LegendMM LegendMM LegendMM 100.65     LegendNANA
09:00 20.6 12.7 61   LegendMM LegendMM LegendMM 100.64     LegendNANA
10:00 22.0 13.1 57   LegendMM LegendMM LegendMM 100.58 25   LegendNANA
11:00 22.3 13.9 59   LegendMM LegendMM LegendMM 100.53 26   LegendNANA
12:00 23.4 16.2 64   LegendMM LegendMM LegendMM 100.45 28   LegendNANA
13:00 24.3 14.7 55   LegendMM LegendMM LegendMM 100.37 28   LegendNANA
14:00 24.1 14.2 54   LegendMM LegendMM LegendMM 100.29 28   LegendNANA
15:00 24.4 14.7 55   LegendMM LegendMM LegendMM 100.21 28   LegendNANA
16:00 23.0 15.0 61   LegendMM LegendMM LegendMM 100.17 27   LegendNANA
17:00 22.7 16.4 68   LegendMM LegendMM LegendMM 100.12 28   LegendNANA
18:00 22.9 15.1 61   LegendMM LegendMM LegendMM 100.10 27   LegendNANA
19:00 22.9 13.7 56   LegendMM LegendMM LegendMM 100.10 26   LegendNANA
20:00 21.9 14.1 61   LegendMM LegendMM LegendMM 100.08 25   LegendNANA
21:00 21.3 16.3 73   LegendMM LegendMM LegendMM 100.08 26   LegendNANA
22:00 20.5 16.5 78   LegendMM LegendMM LegendMM 100.04 25   LegendNANA
23:00 20.4 17.4 83   LegendMM LegendMM LegendMM 100.00 26   LegendNANA

Notes on Data Quality.

Legend

  • E = Estimated
  • M = Missing
  • NA = Not Available*
  • [empty] = Indicates an unobserved value
Date modified: